• In Hungary
  • List of Countries
  • For 7 days
  • Water Temperature
  • Satellite Maps
  • Weather Map
  • News
  • Weather Widgets
  • user-avatar
    Login

    Hourly Weather Sedtydin

    Today, 20 September, Thursday

    Time Temperature Precipitation Wind Pressure Humidity
    00:00 +7°C° 0.4 mm 2 mps 740 mmHg 91%
    01:00 +7°C° 0.4 mm 2 mps 740 mmHg 91%
    02:00 +7°C° 0.2 mm 3 mps 740 mmHg 92%
    03:00 +7°C° 0.2 mm 3 mps 740 mmHg 92%
    04:00 +6°C° 0 mm 2 mps 740 mmHg 95%
    05:00 +6°C° 0.2 mm 2 mps 740 mmHg 95%
    06:00 +6°C° 0.2 mm 2 mps 741 mmHg 94%
    07:00 +5°C° 0.2 mm 3 mps 741 mmHg 94%
    08:00 +7°C° 0.1 mm 3 mps 741 mmHg 89%
    09:00 +8°C° 0.1 mm 3 mps 741 mmHg 84%
    10:00 +9°C° 0.1 mm 3 mps 741 mmHg 78%
    11:00 +10°C° 0 mm 3 mps 742 mmHg 73%
    12:00 +11°C° 0 mm 3 mps 742 mmHg 67%
    13:00 +12°C° 0 mm 3 mps 742 mmHg 62%
    14:00 +12°C° 0 mm 3 mps 742 mmHg 61%
    15:00 +12°C° 0 mm 3 mps 742 mmHg 60%
    16:00 +13°C° 0 mm 2 mps 742 mmHg 58%
    17:00 +12°C° 0 mm 2 mps 743 mmHg 66%
    18:00 +9°C° 0 mm 2 mps 743 mmHg 74%
    19:00 +8°C° 0 mm 1 mps 743 mmHg 81%
    20:00 +8°C° 0 mm 1 mps 743 mmHg 84%
    21:00 +7°C° 0 mm 1 mps 744 mmHg 86%
    22:00 +6°C° 0 mm 1 mps 744 mmHg 89%
    23:00 +6°C° 0 mm 1 mps 744 mmHg 90%

    Tomorrow, 21 September, Friday

    Time Temperature Precipitation Wind Pressure Humidity
    00:00 +6°C° 0 mm 1 mps 744 mmHg 91%
    01:00 +5°C° 0 mm 1 mps 744 mmHg 93%
    02:00 +5°C° 0 mm 1 mps 745 mmHg 93%
    03:00 +5°C° 0 mm 1 mps 745 mmHg 93%
    04:00 +5°C° 0 mm 1 mps 745 mmHg 94%
    05:00 +5°C° 0 mm 1 mps 745 mmHg 93%
    06:00 +5°C° 0 mm 1 mps 746 mmHg 93%
    07:00 +5°C° 0 mm 1 mps 746 mmHg 92%
    08:00 +7°C° 0 mm 1 mps 746 mmHg 83%
    09:00 +9°C° 0 mm 1 mps 746 mmHg 73%
    10:00 +12°C° 0 mm 1 mps 746 mmHg 64%
    11:00 +13°C° 0 mm 1 mps 746 mmHg 60%
    12:00 +14°C° 0 mm 1 mps 746 mmHg 55%
    13:00 +15°C° 0 mm 2 mps 746 mmHg 51%
    14:00 +15°C° 0 mm 2 mps 746 mmHg 52%
    15:00 +14°C° 0 mm 2 mps 746 mmHg 54%
    16:00 +14°C° 0 mm 2 mps 746 mmHg 56%
    17:00 +13°C° 0 mm 2 mps 746 mmHg 63%
    18:00 +12°C° 0 mm 2 mps 746 mmHg 69%
    19:00 +10°C° 0 mm 2 mps 746 mmHg 76%
    20:00 +10°C° 0 mm 2 mps 746 mmHg 83%
    21:00 +10°C° 0 mm 2 mps 747 mmHg 89%
    22:00 +10°C° 0 mm 2 mps 747 mmHg 95%
    23:00 +9°C° 0 mm 2 mps 747 mmHg 96%

    Day after tomorrow, 22 September, Saturday

    Time Temperature Precipitation Wind Pressure Humidity
    00:00 +9°C° 0 mm 2 mps 747 mmHg 97%
    01:00 +9°C° 0 mm 1 mps 747 mmHg 98%
    02:00 +9°C° 0 mm 1 mps 747 mmHg 98%
    03:00 +9°C° 0 mm 1 mps 748 mmHg 98%
    04:00 +8°C° 0 mm 1 mps 748 mmHg 97%
    05:00 +9°C° 0 mm 1 mps 748 mmHg 97%
    06:00 +9°C° 0 mm 1 mps 748 mmHg 97%
    07:00 +9°C° 0 mm 1 mps 748 mmHg 97%
    08:00 +10°C° 0 mm 1 mps 748 mmHg 94%
    09:00 +12°C° 0 mm 2 mps 748 mmHg 92%
    10:00 +13°C° 0 mm 2 mps 747 mmHg 89%
    11:00 +13°C° 0 mm 2 mps 747 mmHg 88%
    12:00 +14°C° 0 mm 2 mps 747 mmHg 87%
    13:00 +15°C° 0 mm 2 mps 747 mmHg 85%
    14:00 +15°C° 0 mm 2 mps 747 mmHg 85%
    15:00 +15°C° 0 mm 2 mps 747 mmHg 85%
    16:00 +15°C° 0 mm 2 mps 747 mmHg 85%
    17:00 +14°C° 0 mm 2 mps 747 mmHg 89%
    18:00 +14°C° 0 mm 2 mps 747 mmHg 93%
    19:00 +13°C° 0 mm 2 mps 747 mmHg 97%
    20:00 +13°C° 0 mm 2 mps 747 mmHg 97%
    21:00 +13°C° 0 mm 2 mps 747 mmHg 97%
    22:00 +13°C° 0 mm 2 mps 747 mmHg 98%
    23:00 +13°C° 0 mm 2 mps 747 mmHg 98%

    23 September, Sunday

    Time Temperature Precipitation Wind Pressure Humidity
    00:00 +13°C° 0 mm 2 mps 747 mmHg 98%
    01:00 +14°C° 0 mm 2 mps 746 mmHg 98%
    02:00 +14°C° 0 mm 2 mps 746 mmHg 98%
    03:00 +14°C° 0 mm 2 mps 746 mmHg 98%
    04:00 +14°C° 0 mm 2 mps 746 mmHg 98%
    05:00 +14°C° 0 mm 2 mps 746 mmHg 98%
    06:00 +14°C° 0 mm 2 mps 746 mmHg 97%
    07:00 +14°C° 0 mm 2 mps 746 mmHg 97%
    08:00 +14°C° 0 mm 3 mps 746 mmHg 93%
    09:00 +16°C° 0 mm 3 mps 746 mmHg 89%
    10:00 +17°C° 0 mm 3 mps 746 mmHg 85%
    11:00 +18°C° 0 mm 3 mps 746 mmHg 79%
    12:00 +19°C° 0 mm 3 mps 746 mmHg 72%
    13:00 +21°C° 0 mm 4 mps 746 mmHg 66%
    14:00 +21°C° 0 mm 3 mps 745 mmHg 65%
    15:00 +21°C° 0 mm 3 mps 745 mmHg 65%
    16:00 +21°C° 0 mm 3 mps 745 mmHg 65%
    17:00 +20°C° 0 mm 3 mps 745 mmHg 72%
    18:00 +18°C° 0 mm 3 mps 745 mmHg 80%
    19:00 +16°C° 0 mm 3 mps 744 mmHg 87%
    20:00 +16°C° 0 mm 3 mps 744 mmHg 88%
    21:00 +16°C° 0 mm 3 mps 744 mmHg 90%
    22:00 +14°C° 0 mm 3 mps 744 mmHg 91%
    23:00 +14°C° 0 mm 3 mps 744 mmHg 92%

    24 September, Monday

    Time Temperature Precipitation Wind Pressure Humidity
    00:00 +14°C° 0 mm 3 mps 743 mmHg 93%
    01:00 +14°C° 0 mm 3 mps 743 mmHg 94%
    02:00 +14°C° 0 mm 4 mps 743 mmHg 94%
    03:00 +13°C° 0 mm 4 mps 743 mmHg 93%
    04:00 +13°C° 0 mm 4 mps 742 mmHg 93%
    05:00 +13°C° 0 mm 4 mps 742 mmHg 91%
    06:00 +13°C° 0 mm 5 mps 741 mmHg 90%
    07:00 +13°C° 0 mm 5 mps 741 mmHg 88%
    08:00 +14°C° 0 mm 5 mps 741 mmHg 84%
    09:00 +15°C° 0 mm 5 mps 740 mmHg 80%
    10:00 +15°C° 0 mm 6 mps 740 mmHg 77%
    11:00 +16°C° 0 mm 6 mps 740 mmHg 71%
    12:00 +17°C° 0 mm 6 mps 740 mmHg 66%
    13:00 +19°C° 0 mm 6 mps 739 mmHg 60%
    14:00 +16°C° 0.5 mm 6 mps 740 mmHg 68%
    15:00 +14°C° 0.5 mm 5 mps 740 mmHg 76%
    16:00 +12°C° 0.5 mm 5 mps 740 mmHg 84%
    17:00 +10°C° 0.9 mm 4 mps 741 mmHg 86%
    18:00 +9°C° 0.9 mm 3 mps 742 mmHg 89%
    19:00 +8°C° 0.9 mm 3 mps 742 mmHg 91%
    20:00 +7°C° 0 mm 3 mps 743 mmHg 93%
    21:00 +7°C° 0 mm 3 mps 744 mmHg 94%
    22:00 +7°C° 0 mm 3 mps 744 mmHg 95%
    23:00 +7°C° 0 mm 2 mps 744 mmHg 96%

    25 September, Tuesday

    Time Temperature Precipitation Wind Pressure Humidity
    00:00 +6°C° 0 mm 2 mps 745 mmHg 96%
    01:00 +6°C° 0 mm 2 mps 745 mmHg 97%
    02:00 +6°C° 0 mm 2 mps 745 mmHg 97%
    03:00 +6°C° 0 mm 2 mps 745 mmHg 97%
    04:00 +6°C° 0 mm 2 mps 745 mmHg 97%
    05:00 +6°C° 0 mm 2 mps 745 mmHg 97%
    06:00 +6°C° 0 mm 2 mps 744 mmHg 96%
    07:00 +6°C° 0 mm 2 mps 744 mmHg 96%
    08:00 +7°C° 0 mm 3 mps 744 mmHg 92%
    09:00 +8°C° 0 mm 3 mps 743 mmHg 89%
    10:00 +9°C° 0 mm 3 mps 743 mmHg 86%
    11:00 +9°C° 0.2 mm 3 mps 742 mmHg 85%
    12:00 +9°C° 0.2 mm 3 mps 741 mmHg 85%
    13:00 +8°C° 0.2 mm 4 mps 740 mmHg 85%
    14:00 +10°C° 0.6 mm 4 mps 740 mmHg 87%
    15:00 +10°C° 0.6 mm 4 mps 739 mmHg 89%
    16:00 +11°C° 0.6 mm 3 mps 738 mmHg 92%
    17:00 +11°C° 0.2 mm 3 mps 738 mmHg 93%
    18:00 +11°C° 0.2 mm 3 mps 737 mmHg 93%
    19:00 +12°C° 0.2 mm 3 mps 737 mmHg 94%
    20:00 +11°C° 0.6 mm 4 mps 736 mmHg 92%
    21:00 +11°C° 0.6 mm 4 mps 736 mmHg 91%
    22:00 +11°C° 0.6 mm 4 mps 736 mmHg 89%
    23:00 +10°C° 0.1 mm 4 mps 736 mmHg 89%
    Show more